Location: ??????
(42.0089°N, 44.3281°E)
Time: 18:01:25
(UTC+00:00)

USA 267 - Pass Details

Date: 04 June 2022
Orbit: 1101 x 1106 km, 123.0° (Epoch: 28 June)

Event Time Altitude Azimuth Distance (km) Brightness Sun altitude
Rises 19:24:31 0° 69° (ENE) 3,920 6.1 -21.7°
Reaches altitude 10° 19:27:29 10° 56° (NE) 2,963 5.6 -22.0°
Maximum altitude 19:32:28 24° 6° (N) 2,101 5.4 -22.3°
Drops below altitude 10° 19:37:28 10° 316° (NW) 2,965 6.4 -22.7°
Sets 19:40:26 0° 303° (WNW) 3,924 7.0 -22.8°
